Погода в Соле

Вануату     13°52′26″S   167°32′51″E
темп.,
°C
ветер,
м/с
пор.,
м/с
влажн.,
%
обл.,
%
осадки,
мм/ч
давл.,
гПа
погр.,
м
1 марта, пн
пн123:00+29вюв6677100 0.1 1007877
02:00+28юв6677100 0.1 1005865
05:00+28юв5676100 0.1 1004867
08:00+28юв667891 0.0 1007707
11:00+28юв667896 0.0 1006715
14:00+29вюв557359 0.0 1004906
17:00+29вюв557272 0.1 1004937
20:00+29вюв55729 0.0 1006846
2 марта, вт
вт223:00+28юв557421 0.0 1007710
02:00+28юв677667 0.0 1005717
05:00+28юв677683 0.0 1004767
08:00+28юв8878100 0.0 1006798
11:00+28вюв91080100 0.1 1005787
14:00+28в9983100 0.2 1003824
17:00+27св81087100 8.0 1003654
20:00+28ссв131583100 6.8 1006908
3 марта, ср
ср323:00+29ссв121479100 10.2 10061021
02:00+28с9108093 1.2 1004923
05:00+28ссз888177 1.4 1004771
08:00+28ссз10118398 3.6 1007795
11:00+28ссз9107999 5.8 1007934
14:00+28ссз9976100 1.2 1005923
17:00+29с6873100 1.9 1005797
20:00+29с6874100 0.9 1007867
4 марта, чт
чт423:00+29с81074100 3.0 1008941
02:00+29ссз101176100 4.1 10051014
05:00+29с91277100 8.2 10061113
08:00+28с101381100 6.1 10081184
11:00+27с101384100 14.1 10081064
14:00+28с91377100 2.0 10051260
17:00+28ссз121481100 4.3 10041103
20:00+29ссз121477100 3.0 10061221
5 марта, пт
пт523:00+29ссз13157899 4.0 10061265
02:00+29ссз131676100 2.6 10041290
05:00+28ссз131578100 5.6 10041261
08:00+28ссз131679100 4.2 10061348
11:00+28ссз141783100 13.3 10061271
14:00+28ссз141780100 4.4 10031322
17:00+28сз182279100 7.6 10031523
20:00+28ссз151782100 1.0 10051269